Torna al catalogo

NAVSTAR 22

USA 66

AttivoNavigazioneMEO
NORAD 20959·PAYLOAD·🇺🇸 United States

Lanciato Nov 26, 1990 da Cape Canaveral Space Force Station

Loading…

Prossimi Passaggi (prossime 24 ore)

TLE

AggiornatoSource: Space-Track

Epoca: Sep 13, 2026, 09:24 UTC

1 20959U 90103A   26256.39234808 -.00000067  00000-0  00000+0 0  9999
2 20959  56.2820  48.6723 0023164  92.3006 267.9652  1.88155267257527

Traccia NAVSTAR 22 in tempo reale con AllMySat

Download on the App Store